Location: Olsztyn
(53.7767°N, 20.4765°E)
Time: 11:30:08
(UTC+01:00)

Altair - Visible Passes

Search period start: 19 January 2022 00:00
Search period end: 29 January 2022 00:00
Orbit: 1501 x 1683 km, 47.2° (Epoch: 18 January)

Date Brightness Start Highest point End Pass type
(mag) Time Alt. Az. Time Alt. Az. Time Alt. Az.
19 Jan 9.4 01:30:03 18° ESE 01:30:03 18° ESE 01:33:18 10° E visible
19 Jan 8.1 03:28:04 45° S 03:29:11 47° SSE 03:38:39 10° E visible
19 Jan 7.9 05:26:05 22° WSW 05:33:07 61° S 05:42:59 10° ESE visible
20 Jan 9.6 01:06:18 14° E 01:06:18 14° E 01:07:54 10° E visible
20 Jan 8.2 03:04:19 45° SSE 03:04:19 45° SSE 03:13:27 10° E visible
20 Jan 7.9 05:02:20 29° WSW 05:07:57 61° S 05:17:48 10° E visible
20 Jan 8.3 07:02:19 10° W 07:11:58 51° SSW 07:21:27 10° SE visible
21 Jan 8.3 02:40:32 41° SE 02:40:32 41° SE 02:48:14 10° E visible
21 Jan 7.8 04:38:33 38° SW 04:42:47 61° S 04:52:39 10° E visible
21 Jan 8.2 06:37:07 10° W 06:46:49 52° SSW 06:56:23 10° SE visible
22 Jan 8.6 02:16:43 35° ESE 02:16:43 35° ESE 02:23:01 10° E visible
22 Jan 7.8 04:14:43 47° SW 04:17:35 60° S 04:27:29 10° E visible
22 Jan 8.1 06:12:44 13° W 06:21:41 54° SSW 06:31:18 10° SE visible
23 Jan 8.9 01:52:52 28° ESE 01:52:52 28° ESE 01:57:48 10° E visible
23 Jan 7.7 03:50:53 55° SSW 03:52:25 60° S 04:02:18 10° E visible
23 Jan 8.0 05:48:54 18° W 05:56:31 55° SSW 06:06:13 10° ESE visible
24 Jan 9.1 01:29:01 23° E 01:29:01 23° E 01:32:34 10° E visible
24 Jan 7.7 03:27:02 59° S 03:27:15 59° S 03:37:07 10° E visible
24 Jan 7.9 05:25:03 25° W 05:31:22 56° SSW 05:41:06 10° ESE visible
25 Jan 9.4 01:05:09 17° E 01:05:09 17° E 01:07:20 10° E visible
25 Jan 7.9 03:03:10 55° SE 03:03:10 55° SE 03:11:57 10° E visible
25 Jan 7.9 05:01:10 32° WSW 05:06:12 57° SSW 05:15:59 10° ESE visible
26 Jan 9.6 00:41:17 13° E 00:41:17 13° E 00:42:05 10° E visible
26 Jan 8.1 02:39:17 48° SE 02:39:17 48° SE 02:46:45 10° E visible
26 Jan 7.8 04:37:18 40° WSW 04:41:02 58° S 04:50:52 10° ESE visible
26 Jan 8.5 06:35:44 10° W 06:44:40 37° SW 06:53:30 10° SSE visible
27 Jan 8.4 02:15:25 39° ESE 02:15:25 39° ESE 02:21:33 10° E visible
27 Jan 7.7 04:13:27 49° SW 04:15:52 59° S 04:25:43 10° ESE visible
27 Jan 8.4 06:11:27 13° W 06:19:34 39° SSW 06:28:32 10° SSE visible
28 Jan 8.8 01:51:33 31° ESE 01:51:33 31° ESE 01:56:23 10° E visible
28 Jan 7.6 03:49:34 57° SSW 03:50:41 60° S 04:00:35 10° ESE visible
28 Jan 8.3 05:47:36 18° W 05:54:27 41° SSW 06:03:34 10° SSE visible
